GW6374 Weather Reports


time (UTC)temp
F
wind
direction
speed
knots
gust
knots
rain 1hr
in
rain 24hr
in
rain mn
in
humidity
%
barometer
mb
20260504041718 55 181 2.6 4.3 0.00 0.00 0.00 51 1008.0
20260504041214 55 179 1.7 6.1 0.00 0.00 0.00 50 1007.8
20260504040710 55 112 3.5 11.3 0.00 0.00 0.00 50 1007.7
20260504040208 55 137 2.6 5.2 0.00 0.00 0.00 52 1007.8
20260504035704 54 102 2.6 6.1 0.00 0.04 0.04 52 1007.7
20260504035201 54 119 4.3 7.8 0.00 0.04 0.04 53 1007.6
20260504034659 53 111 3.5 5.2 0.00 0.04 0.04 55 1007.6
20260504034155 53 231 5.2 5.2 0.00 0.04 0.04 55 1007.5
20260504033653 53 118 5.2 7.0 0.00 0.04 0.04 55 1007.8
20260504033150 53 139 2.6 4.3 0.00 0.04 0.04 56 1007.6
20260504032647 53 127 3.5 4.3 0.00 0.04 0.04 57 1007.7
20260504032144 53 113 3.5 4.3 0.00 0.04 0.04 57 1007.6
20260504031641 53 243 7.8 8.7 0.00 0.04 0.04 57 1007.7
20260504031137 52 178 1.7 7.0 0.00 0.04 0.04 58 1007.7
20260504030634 51 207 4.3 4.3 0.00 0.04 0.04 59 1008.0
20260504030131 51 123 3.5 4.3 0.00 0.04 0.04 60 1007.9
20260504025628 51 110 3.5 4.3 0.00 0.04 0.04 62 1007.9
20260504025125 50 106 1.7 3.5 0.00 0.04 0.04 63 1008.1
20260504024622 50 124 3.5 3.5 0.00 0.04 0.04 64 1007.9
20260504024118 50 114 2.6 4.3 0.00 0.04 0.04 64 1008.0
20260504023615 51 103 3.5 3.5 0.00 0.04 0.04 66 1008.1
20260504023111 51 131 2.6 3.5 0.00 0.04 0.04 65 1008.2
20260504022608 51 116 3.5 4.3 0.00 0.04 0.04 66 1008.1
20260504022103 51 115 3.5 3.5 0.00 0.04 0.04 67 1008.2
20260504021602 50 118 3.5 4.3 0.00 0.04 0.04 69 1008.2
20260504021058 50 125 1.7 3.5 0.00 0.04 0.04 73 1008.2
20260504020555 50 109 2.6 3.5 0.00 0.04 0.04 75 1008.3
20260504020051 49 100 1.7 4.3 0.00 0.04 0.04 77 1008.2
20260504015548 49 120 2.6 3.5 0.00 0.04 0.04 81 1008.2
20260504015044 49 124 2.6 3.5 0.00 0.04 0.04 84 1008.2
20260504014540 49 127 2.6 3.5 0.00 0.04 0.04 86 1008.5
20260504014037 49 129 3.5 3.5 0.00 0.04 0.04 88 1008.3
20260504013535 48 118 3.5 3.5 0.00 0.04 0.04 89 1008.4
20260504013032 48 122 3.5 4.3 0.00 0.04 0.04 90 1008.4
20260504012529 48 121 2.6 3.5 0.00 0.04 0.04 91 1008.4
20260504012027 48 105 3.5 3.5 0.00 0.04 0.04 92 1008.5
20260504011523 48 111 1.7 2.6 0.00 0.04 0.04 92 1008.4
20260504011020 48 109 1.7 2.6 0.00 0.04 0.04 92 1008.4
20260504010515 48 120 2.6 3.5 0.00 0.04 0.04 92 1008.3
20260504010011 48 104 1.7 3.5 0.00 0.04 0.04 92 1008.4
20260504005508 48 99 1.7 2.6 0.00 0.04 0.04 91 1008.7
20260504005006 49 132 1.7 3.5 0.00 0.04 0.04 91 1008.8
20260504004504 49 102 1.7 2.6 0.00 0.04 0.04 90 1008.6
20260504004000 49 126 2.6 3.5 0.00 0.04 0.04 90 1008.6
20260504003456 49 125 2.6 3.5 0.02 0.04 0.04 89 1008.7
20260504002953 49 124 2.6 3.5 0.07 0.04 0.04 88 1008.9
20260504002450 49 124 3.5 3.5 0.07 0.04 0.04 88 1008.9
20260504001948 49 105 1.7 3.5 0.02 0.03 0.03 87 1009.1
20260504001445 49 125 2.6 3.5 0.02 0.03 0.03 87 1009.1
20260504000942 49 128 2.6 3.5 0.00 0.02 0.02 87 1008.8
20260504000439 49 125 2.6 3.5 0.00 0.02 0.02 87 1009.1
20260503235936 49 123 2.6 3.5 0.00 0.02 0.02 86 1009.1
20260503235434 49 163 1.7 3.5 0.02 0.02 0.02 85 1009.2
20260503234931 49 170 1.7 3.5 0.07 0.02 0.02 85 1009.2
20260503234428 50 170 1.7 3.5 0.07 0.02 0.02 85 1009.4
20260503233926 50 190 2.6 3.5 0.07 0.02 0.02 83 1009.3
20260503233423 50 171 2.6 3.5 0.02 0.01 0.01 83 1009.2
20260503232919 50 211 2.6 4.3 0.02 0.00 0.00 82 1009.3
20260503232416 50 178 2.6 4.3 0.00 0.00 0.00 81 1009.1
20260503231914 50 181 2.6 5.2 0.00 0.00 0.00 80 1009.3
20260503231411 51 234 1.7 7.8 0.00 0.00 0.00 79 1009.4
20260503230907 51 287 3.5 11.3 0.00 0.00 0.00 76 1009.4
20260503230404 53 237 4.3 20.0 0.00 0.00 0.00 72 1009.4
20260503225901 53 152 3.5 6.1 0.00 0.00 0.00 64 1009.2
20260503225357 54 232 6.1 8.7 0.00 0.00 0.00 60 1008.9
20260503224854 54 187 3.5 3.5 0.00 0.00 0.00 60 1009.1
20260503224351 54 199 3.5 7.8 0.00 0.00 0.00 58 1009.1
20260503223849 54 154 3.5 7.8 0.00 0.00 0.00 57 1008.8
20260503223346 55 127 3.5 4.3 0.00 0.00 0.00 56 1008.7
20260503222841 55 137 3.5 6.1 0.00 0.00 0.00 55 1008.7
20260503222341 55 162 2.6 9.6 0.00 0.00 0.00 54 1008.5
20260503221838 55 149 4.3 5.2 0.00 0.00 0.00 54 1008.6
20260503221337 55 160 3.5 4.3 0.00 0.00 0.00 53 1008.6
20260503220832 55 163 2.6 8.7 0.00 0.00 0.00 52 1008.6
20260503220329 55 129 3.5 5.2 0.00 0.00 0.00 52 1008.6
20260503215826 55 142 3.5 4.3 0.00 0.00 0.00 52 1008.5
20260503215323 55 115 4.3 5.2 0.00 0.00 0.00 51 1008.5
20260503214821 55 115 2.6 4.3 0.00 0.00 0.00 51 1008.4
20260503214318 56 124 2.6 4.3 0.00 0.00 0.00 51 1008.6
20260503213815 56 142 2.6 6.1 0.00 0.00 0.00 52 1008.4
20260503213313 55 120 3.5 3.5 0.00 0.00 0.00 50 1008.3
20260503212809 55 127 4.3 4.3 0.00 0.00 0.00 50 1008.2
20260503212308 56 167 2.6 7.0 0.00 0.00 0.00 49 1008.5
20260503211805 56 129 4.3 5.2 0.00 0.00 0.00 50 1008.4
20260503211301 56 169 1.7 4.3 0.00 0.00 0.00 50 1008.5
20260503210801 56 145 2.6 5.2 0.00 0.00 0.00 49 1008.2
20260503210259 56 109 2.6 5.2 0.00 0.00 0.00 48 1008.4
20260503205754 56 110 3.5 4.3 0.00 0.00 0.00 49 1008.4
20260503205251 56 174 1.7 6.1 0.00 0.00 0.00 46 1008.5
20260503204747 57 167 2.6 5.2 0.00 0.00 0.00 46 1008.4
20260503204245 57 108 2.6 4.3 0.00 0.00 0.00 46 1008.6
20260503203742 57 96 2.6 6.1 0.00 0.00 0.00 45 1008.6
20260503203239 58 105 1.7 3.5 0.00 0.00 0.00 46 1008.6
20260503202736 58 109 2.6 4.3 0.00 0.00 0.00 45 1008.7
20260503202234 58 114 3.5 5.2 0.00 0.00 0.00 43 1008.8
20260503201732 58 163 2.6 5.2 0.00 0.00 0.00 44 1008.8
20260503201229 58 113 2.6 4.3 0.00 0.00 0.00 44 1008.8
20260503200726 58 124 3.5 7.8 0.00 0.00 0.00 42 1009.1
20260503200222 58 132 2.6 4.3 0.00 0.00 0.00 43 1009.2
20260503195719 58 123 2.6 6.1 0.00 0.00 0.00 41 1009.2
20260503195216 59 211 4.3 8.7 0.00 0.00 0.00 38 1009.2
20260503194713 59 159 3.5 4.3 0.00 0.00 0.00 40 1009.4
20260503194209 59 142 3.5 4.3 0.00 0.00 0.00 40 1009.5
20260503193705 59 238 6.1 6.1 0.00 0.00 0.00 38 1009.4
20260503193201 59 277 0.9 7.0 0.00 0.00 0.00 40 1009.7
20260503192657 59 111 4.3 10.4 0.00 0.00 0.00 43 1009.7
20260503192152 59 189 2.6 5.2 0.00 0.00 0.00 39 1009.8
20260503191649 59 238 10.4 13.9 0.00 0.00 0.00 39 1009.9
20260503191146 59 206 5.2 7.8 0.00 0.00 0.00 40 1010.1
20260503190643 58 203 3.5 4.3 0.00 0.00 0.00 42 1010.2
20260503190140 58 99 4.3 9.6 0.00 0.00 0.00 43 1010.3
20260503185637 58 153 3.5 11.3 0.00 0.00 0.00 41 1010.3
20260503185132 57 147 3.5 6.1 0.00 0.00 0.00 40 1010.4
20260503184627 57 125 4.3 6.1 0.00 0.00 0.00 42 1010.6
20260503184124 57 148 4.3 8.7 0.00 0.00 0.00 39 1010.5
20260503183620 56 122 4.3 11.3 0.00 0.00 0.00 41 1010.7
20260503183118 53 222 2.6 5.2 0.00 0.00 0.00 44 1010.7
20260503182616 49 209 2.6 9.6 0.00 0.00 0.00 53 1010.9
20260503182114 46 63 2.6 5.2 0.00 0.00 0.00 68 1010.9
20260503181611 46 10 4.3 5.2 0.00 0.00 0.00 70 1011.0
20260503181107 45 326 1.7 3.5 0.00 0.00 0.00 70 1011.1
20260503180605 45 20 1.7 2.6 0.00 0.00 0.00 72 1011.3
20260503175559 45 13 2.6 3.5 0.00 0.00 0.00 71 1011.3
20260503175056 45 23 3.5 3.5 0.00 0.00 0.00 71 1011.4
20260503174553 45 337 1.7 2.6 0.00 0.00 0.00 70 1011.5
20260503174049 45 23 0.9 2.6 0.00 0.00 0.00 70 1011.5
20260503173544 44 341 1.7 3.5 0.00 0.00 0.00 70 1011.6
20260503173041 44 304 3.5 5.2 0.00 0.00 0.00 74 1011.6
20260503172539 44 329 2.6 4.3 0.00 0.00 0.00 75 1011.7
20260503172036 44 326 2.6 5.2 0.00 0.00 0.00 74 1011.7
20260503171532 44 304 2.6 4.3 0.00 0.00 0.00 72 1011.9
20260503171030 44 302 4.3 5.2 0.00 0.00 0.00 74 1012.0
20260503170526 45 319 4.3 5.2 0.00 0.00 0.00 73 1011.8
20260503150918 46 339 6.1 7.8 0.00 0.00 0.00 73 1012.8
20260503150415 46 8 4.3 7.0 0.00 0.00 0.00 73 1012.8
20260503131308 49 96 2.6 4.3 0.00 0.00 0.00 55 1013.8
20260503130805 50 120 4.3 5.2 0.00 0.00 0.00 54 1013.9
20260503130303 49 101 3.5 4.3 0.00 0.00 0.00 57 1013.9
20260503110656 43 119 2.6 4.3 0.00 0.00 0.00 66 1013.9
20260503110154 42 102 1.7 4.3 0.00 0.00 0.00 68 1013.8
20260503100120 34 123 3.5 3.5 0.00 0.00 0.00 84 1013.7
20260503081510 36 102 2.6 3.5 0.00 0.00 0.00 80 1013.8
20260503081007 36 120 2.6 3.5 0.00 0.00 0.00 80 1013.9
20260503080503 36 115 2.6 3.5 0.00 0.00 0.00 80 1013.8
20260503072939 37 120 2.6 4.3 0.00 0.00 0.00 79 1013.7
20260503072437 37 115 1.7 4.3 0.00 0.00 0.00 80 1013.8
20260503071934 37 114 3.5 3.5 0.00 0.00 0.00 81 1013.8
20260503071430 37 117 3.5 4.3 0.00 0.00 0.00 81 1013.7
20260503070926 36 152 3.5 4.3 0.00 0.00 0.00 83 1013.7
20260503070424 36 127 3.5 3.5 0.00 0.00 0.00 83 1013.8
20260503054837 37 125 3.5 3.5 0.00 0.00 0.00 81 1014.0
20260503054333 37 134 2.6 3.5 0.00 0.00 0.00 81 1013.9
20260503053831 37 129 3.5 3.5 0.00 0.00 0.00 80 1014.2
20260503053329 38 119 2.6 3.5 0.00 0.00 0.00 80 1014.2
20260503052825 38 119 2.6 3.5 0.00 0.00 0.00 79 1014.3
20260503052322 38 122 3.5 3.5 0.00 0.00 0.00 79 1014.2
20260503051818 38 123 3.5 3.5 0.00 0.00 0.00 79 1014.4
20260503051315 38 130 3.5 3.5 0.00 0.00 0.00 79 1014.3
20260503050812 38 124 3.5 3.5 0.00 0.00 0.00 79 1014.3
20260503050308 39 118 2.6 3.5 0.00 0.00 0.00 78 1014.3
20260503045806 39 110 2.6 3.5 0.00 0.00 0.00 78 1014.6
20260503045305 39 109 2.6 4.3 0.00 0.00 0.00 77 1014.3
20260503044759 39 119 1.7 3.5 0.00 0.00 0.00 77 1014.4
20260503044256 39 121 2.6 3.5 0.00 0.00 0.00 76 1014.5
20260503043754 39 122 3.5 3.5 0.00 0.00 0.00 76 1014.6
20260503043251 40 109 3.5 3.5 0.00 0.00 0.00 74 1014.7
20260503042746 40 108 2.6 3.5 0.00 0.00 0.00 73 1014.8
20260503042244 40 108 2.6 3.5 0.00 0.00 0.00 73 1014.7